TIANQI-12 (48426 NORAD) Tracking and Keplerian Element Data

This shows tracking and keplerian element data for the satellite.

Feedback or suggestion? Click here.




ElementValue
Catalog48426
NameTIANQI-12
Epoch Orbit1317
Epoch Day215.16834498
Epoch Year2021
RAAN303.7011
Inclination35.0084
Eccentricity0.0006355
Argument of Perigee295.9764
Mean Anonmoly64.029
Mean Motion14.91458946
Decay Rate2.64E-06
L11 48426U 21039D 21215.16834498 .00000264 00000-0 28611-4 0 9997
L22 48426 35.0084 303.7011 0006355 295.9764 64.0290 14.91458946 13176

Live tracking and technical data element details for TIANQI-12 (NORAD 48426). TIANQI-12 can be tracked NOW for your location showing map with azimuth and elevation plus other details from your city location.

Track the satellite on the map from your city or location and see movement details for azimuth, elevation, latitude, longitude, range, height, and movement on the map or in text.







IsCatalogInMostPopularTable: catalog: 48426, numindb: 46
Update: records affected: 1



GetName: 48426 TIANQI-12

Hit Count: updated at: Wed, 04 Aug 2021 00:36:50 GMT